Find Starlink 30277

NORAD ID: 57645 Int'l Des: 2023-122 Owner: SPXS Country: US Constellation: starlink operational
LEOCIRCULAR

現在のビュー

3D地球を読み込み中...

About Starlink 30277

Starlink 30277 (NORAD 57645) is a starlink constellation satellite (v2 mini) launched Aug 17, 2023 by SPXS of US. It operates in LEO, CIRCULAR orbit with a mass of 730.00 kg.

Starlink 30277について

説明を読み込み中...

次回通過

Passes for default location (London). Set your location on the main map for personalized predictions.

高度履歴

Loading altitude history...

軌道要素

1 57645U 23122P 26164.19655331 .00001528 00000-0 65035-4 0 9998
2 57645 43.0052 131.0252 0001074 268.7246 91.3483 15.27576694158480
Epoch: Jun 13, 2026 • Age: 9 hours

現在のステータス

高度 493.1 km
速度 7.62 km/s
衛星直下点 -36.65°S, 33.53°W
打ち上げ日 Aug 17, 2023
運用期間 2.8 years
タイプ internet

技術仕様

分類 Payload
質量 730.00 kg
乾燥質量 700.00 kg
総質量 730.00 kg
長さ 0.30 m
直径 4.10 m
スパン 29.00 m
形状 Box + pan
製造者 SPXS
バスタイプ Starlink V2M
フェーズステータス In Orbit
所有者/国 SPXS/US

Most Searched